UZB756 UBBB-UZTT

Flight info

Callsign UZB756
Flight time 2h 0m
Altitude 35000
Route N0450F350 NAMAS N35 RODAR A909 TUNEK B143 KRS B738 NEBIT B476 DARVA T898 OGOLI N193 DIBAD
Aircraft A21N/M-VGDW/C

Departure

Time 2026-04-23 15:16
Airport Heydar Aliyev International Airport (UBBB)

Arrival

Time 2026-04-23 17:16
Airport Tashkent International Airport (UZTT)
Time Latitude Longitude Altitude Speed Heading
2026-04-23 14:35 40.46727 50.05238 14 ft 0 kts 178°
2026-04-23 15:06 40.46746 50.05237 16 ft 0 kts 178°
2026-04-23 15:06 40.46773 50.05236 15 ft 0 kts 178°
2026-04-23 15:07 40.46800 50.05235 15 ft 4 kts 178°
2026-04-23 15:07 40.46823 50.05232 17 ft 0 kts 154°
2026-04-23 15:07 40.46837 50.05211 14 ft 0 kts 97°
2026-04-23 15:07 40.46837 50.05187 14 ft 0 kts 88°
2026-04-23 15:08 40.46837 50.05183 14 ft 0 kts 88°
2026-04-23 15:10 40.46838 50.05191 14 ft 2 kts 84°
2026-04-23 15:10 40.46850 50.05219 14 ft 5 kts 42°
2026-04-23 15:10 40.46892 50.05229 15 ft 8 kts 358°
2026-04-23 15:11 40.46928 50.05283 14 ft 10 kts 85°
2026-04-23 15:11 40.46932 50.05389 14 ft 13 kts 88°
2026-04-23 15:11 40.46935 50.05519 14 ft 15 kts 88°
2026-04-23 15:11 40.46938 50.05670 14 ft 18 kts 88°
2026-04-23 15:12 40.46941 50.05803 14 ft 15 kts 88°
2026-04-23 15:12 40.46945 50.05949 14 ft 17 kts 88°
2026-04-23 15:12 40.46929 50.06078 15 ft 16 kts 150°
2026-04-23 15:12 40.46815 50.06090 14 ft 18 kts 179°
2026-04-23 15:13 40.46683 50.06092 14 ft 20 kts 179°
2026-04-23 15:13 40.46538 50.06094 14 ft 22 kts 179°
2026-04-23 15:13 40.46378 50.06097 14 ft 24 kts 179°
2026-04-23 15:13 40.46207 50.06099 14 ft 26 kts 179°
2026-04-23 15:14 40.46019 50.06101 14 ft 28 kts 179°
2026-04-23 15:14 40.45832 50.06104 14 ft 18 kts 179°
2026-04-23 15:14 40.45716 50.06107 14 ft 11 kts 172°
2026-04-23 15:14 40.45655 50.06184 14 ft 14 kts 96°
2026-04-23 15:15 40.45678 50.06311 13 ft 16 kts 24°
2026-04-23 15:15 40.45799 50.06321 12 ft 20 kts 359°
2026-04-23 15:15 40.46161 50.06313 13 ft 86 kts
2026-04-23 15:15 40.46960 50.06304 14 ft 142 kts 358°
2026-04-23 15:16 40.48013 50.06284 377 ft 152 kts 357°
2026-04-23 15:16 40.49063 50.06252 985 ft 154 kts 352°
2026-04-23 15:16 40.50114 50.05906 1574 ft 159 kts 345°
2026-04-23 15:16 40.51256 50.05630 2001 ft 175 kts 349°
2026-04-23 15:17 40.52520 50.05349 2448 ft 194 kts 349°
2026-04-23 15:17 40.53916 50.05029 2945 ft 214 kts 348°
2026-04-23 15:17 40.55465 50.04672 3525 ft 231 kts 347°
2026-04-23 15:17 40.57125 50.04458 3979 ft 258 kts
2026-04-23 15:18 40.58918 50.05147 4438 ft 281 kts 31°
2026-04-23 15:18 40.60319 50.06954 5173 ft 286 kts 60°
2026-04-23 15:18 40.60930 50.09425 5970 ft 287 kts 89°
2026-04-23 15:18 40.60770 50.12038 6748 ft 289 kts 102°
2026-04-23 15:19 40.60425 50.14679 7464 ft 297 kts 103°
2026-04-23 15:19 40.60085 50.17375 7884 ft 302 kts 102°
2026-04-23 15:19 40.59764 50.20132 8076 ft 303 kts 101°
2026-04-23 15:19 40.59459 50.22895 8773 ft 308 kts 101°
2026-04-23 15:20 40.59259 50.24751 9327 ft 311 kts 101°
2026-04-23 15:20 40.58850 50.28571 10267 ft 323 kts 102°
2026-04-23 15:20 40.58188 50.31457 10636 ft 338 kts 118°
2026-04-23 15:20 40.57140 50.34334 10965 ft 358 kts 120°
2026-04-23 15:21 40.55999 50.37348 11269 ft 379 kts 120°
2026-04-23 15:21 40.54810 50.40519 11678 ft 392 kts 119°
2026-04-23 15:21 40.53608 50.43771 12378 ft 397 kts 119°
2026-04-23 15:21 40.52400 50.47062 13114 ft 401 kts 119°
2026-04-23 15:22 40.51200 50.50339 13801 ft 405 kts 119°
2026-04-23 15:22 40.49976 50.53691 14438 ft 408 kts 118°
2026-04-23 15:22 40.48739 50.57060 15054 ft 411 kts 119°
2026-04-23 15:22 40.47490 50.60453 15654 ft 414 kts 119°
2026-04-23 15:23 40.46230 50.63877 16245 ft 417 kts 119°
2026-04-23 15:23 40.44959 50.67322 16810 ft 421 kts 118°
2026-04-23 15:23 40.43681 50.70794 17394 ft 424 kts 118°
2026-04-23 15:23 40.42390 50.74292 17947 ft 427 kts 118°
2026-04-23 15:24 40.41087 50.77816 18464 ft 430 kts 119°
2026-04-23 15:24 40.39776 50.81359 18935 ft 433 kts 118°
2026-04-23 15:24 40.38452 50.84929 19418 ft 436 kts 118°
2026-04-23 15:24 40.37271 50.88617 19880 ft 442 kts 109°
2026-04-23 15:25 40.36736 50.92603 20342 ft 449 kts 94°
2026-04-23 15:25 40.37009 50.96695 20804 ft 453 kts 79°
2026-04-23 15:25 40.37748 51.00728 21294 ft 456 kts 76°
2026-04-23 15:25 40.38531 51.04780 21772 ft 459 kts 76°
2026-04-23 15:26 40.39289 51.08804 22241 ft 462 kts 77°
2026-04-23 15:26 40.40046 51.12923 22725 ft 465 kts 77°
2026-04-23 15:26 40.40799 51.17066 23206 ft 468 kts 77°
2026-04-23 15:26 40.41551 51.21234 23638 ft 471 kts 77°
2026-04-23 15:27 40.42307 51.25436 24039 ft 474 kts 77°
2026-04-23 15:27 40.43061 51.29659 24429 ft 477 kts 77°
2026-04-23 15:27 40.43821 51.33918 24821 ft 480 kts 77°
2026-04-23 15:27 40.44582 51.38196 25207 ft 483 kts 77°
2026-04-23 15:28 40.45348 51.42500 25582 ft 486 kts 77°
2026-04-23 15:28 40.46024 51.46854 25948 ft 488 kts 83°
2026-04-23 15:28 40.46170 51.51313 26291 ft 489 kts 95°
2026-04-23 15:28 40.45664 51.55725 26632 ft 489 kts 105°
2026-04-23 15:29 40.44868 51.60077 26980 ft 491 kts 106°
2026-04-23 15:29 40.44039 51.64432 27359 ft 492 kts 106°
2026-04-23 15:29 40.43217 51.68792 27798 ft 492 kts 106°
2026-04-23 15:29 40.42420 51.73105 28230 ft 492 kts 106°
2026-04-23 15:30 40.41618 51.77472 28664 ft 491 kts 106°
2026-04-23 15:30 40.40815 51.81823 29128 ft 490 kts 106°
2026-04-23 15:30 40.40009 51.86158 29586 ft 489 kts 106°
2026-04-23 15:30 40.39203 51.90504 30005 ft 489 kts 106°
2026-04-23 15:31 40.38400 51.94836 30351 ft 489 kts 106°
2026-04-23 15:31 40.37594 51.99166 30702 ft 488 kts 107°
2026-04-23 15:31 40.36782 52.03487 31043 ft 488 kts 107°
2026-04-23 15:31 40.35971 52.07808 31391 ft 488 kts 107°
2026-04-23 15:32 40.35161 52.12129 31724 ft 488 kts 107°
2026-04-23 15:32 40.34353 52.16440 32061 ft 487 kts 107°
2026-04-23 15:32 40.33545 52.20757 32391 ft 487 kts 107°
2026-04-23 15:32 40.32735 52.25067 32711 ft 487 kts 107°
2026-04-23 15:33 40.31921 52.29380 33027 ft 487 kts 107°
2026-04-23 15:33 40.31106 52.33688 33330 ft 486 kts 107°
2026-04-23 15:33 40.30302 52.37920 33628 ft 486 kts 107°
2026-04-23 15:33 40.29484 52.42212 33912 ft 485 kts 107°
2026-04-23 15:34 40.28667 52.46499 34143 ft 485 kts 107°
2026-04-23 15:34 40.27849 52.50781 34366 ft 484 kts 107°
2026-04-23 15:34 40.27019 52.55056 34579 ft 484 kts 109°
2026-04-23 15:34 40.25883 52.59181 34754 ft 478 kts 120°
2026-04-23 15:35 40.24225 52.62924 34890 ft 474 kts 128°
2026-04-23 15:35 40.20467 52.69990 34858 ft 473 kts 129°
2026-04-23 15:36 40.16715 52.77063 34839 ft 473 kts 129°
2026-04-23 15:36 40.13610 52.82960 34840 ft 473 kts 129°
2026-04-23 15:37 40.09872 52.90045 34837 ft 474 kts 129°
2026-04-23 15:37 40.06749 52.97673 34840 ft 484 kts 111°
2026-04-23 15:37 40.06057 53.01997 34840 ft 490 kts 97°
2026-04-23 15:38 40.06078 53.06448 34852 ft 493 kts 84°
2026-04-23 15:38 40.06807 53.10822 34854 ft 494 kts 71°
2026-04-23 15:38 40.08010 53.15017 34862 ft 494 kts 68°
2026-04-23 15:39 40.10557 53.23361 34848 ft 495 kts 68°
2026-04-23 15:39 40.13031 53.31746 34836 ft 494 kts 69°
2026-04-23 15:40 40.15477 53.40153 34847 ft 494 kts 69°
2026-04-23 15:40 40.17909 53.48501 34839 ft 495 kts 69°
2026-04-23 15:41 40.20354 53.56936 34835 ft 495 kts 69°
2026-04-23 15:41 40.22790 53.65367 34844 ft 495 kts 69°
2026-04-23 15:42 40.25218 53.73799 34840 ft 495 kts 69°
2026-04-23 15:42 40.27646 53.82247 34849 ft 495 kts 69°
2026-04-23 15:43 40.30062 53.90695 34845 ft 495 kts 69°
2026-04-23 15:43 40.32478 53.99160 34844 ft 496 kts 69°
2026-04-23 15:44 40.34890 54.07646 34847 ft 497 kts 69°
2026-04-23 15:44 40.37282 54.16089 34841 ft 497 kts 70°
2026-04-23 15:45 40.39678 54.24579 34968 ft 496 kts 70°
2026-04-23 15:45 40.42071 54.33078 34883 ft 496 kts 70°
2026-04-23 15:46 40.44455 54.41568 34863 ft 496 kts 70°
2026-04-23 15:46 40.46837 54.50083 34861 ft 496 kts 70°
2026-04-23 15:47 40.49210 54.58594 34851 ft 496 kts 70°
2026-04-23 15:47 40.51560 54.67055 34866 ft 496 kts 70°
2026-04-23 15:48 40.53931 54.75630 34864 ft 496 kts 70°
2026-04-23 15:48 40.56285 54.84157 34866 ft 496 kts 70°
2026-04-23 15:49 40.58633 54.92691 34871 ft 496 kts 70°
2026-04-23 15:49 40.60957 55.01171 34871 ft 496 kts 70°
2026-04-23 15:50 40.63296 55.09730 34874 ft 496 kts 70°
2026-04-23 15:50 40.65625 55.18291 34876 ft 496 kts 70°
2026-04-23 15:51 40.67949 55.26859 34879 ft 496 kts 70°
2026-04-23 15:51 40.70261 55.35422 34887 ft 496 kts 70°
2026-04-23 15:52 40.72568 55.43991 34883 ft 497 kts 70°
2026-04-23 15:52 40.74879 55.52582 34885 ft 497 kts 70°
2026-04-23 15:53 40.77175 55.61174 34894 ft 497 kts 70°
2026-04-23 15:53 40.79454 55.69732 34890 ft 497 kts 70°
2026-04-23 15:54 40.81741 55.78340 34890 ft 497 kts 71°
2026-04-23 15:54 40.84030 55.86968 34899 ft 497 kts 71°
2026-04-23 15:55 40.86308 55.95601 34900 ft 497 kts 71°
2026-04-23 15:55 40.88576 56.04227 34903 ft 497 kts 71°
2026-04-23 15:56 40.90842 56.12862 34897 ft 497 kts 71°
2026-04-23 15:56 40.93099 56.21499 34905 ft 497 kts 71°
2026-04-23 15:57 40.95349 56.30149 34899 ft 498 kts 71°
2026-04-23 15:57 40.97589 56.38817 34904 ft 498 kts 71°
2026-04-23 15:58 40.99827 56.47488 34904 ft 498 kts 71°
2026-04-23 15:58 41.01435 56.56321 34913 ft 497 kts 82°
2026-04-23 15:59 41.02446 56.65389 34902 ft 498 kts 82°
2026-04-23 15:59 41.03505 56.74458 34911 ft 498 kts 82°
2026-04-23 16:00 41.04579 56.83530 34917 ft 499 kts 82°
2026-04-23 16:00 41.05647 56.92615 34918 ft 499 kts 82°
2026-04-23 16:01 41.06706 57.01710 34919 ft 499 kts 82°
2026-04-23 16:01 41.07757 57.10791 34917 ft 499 kts 82°
2026-04-23 16:02 41.08789 57.19786 34918 ft 499 kts 82°
2026-04-23 16:02 41.09834 57.28933 34917 ft 499 kts 82°
2026-04-23 16:03 41.10865 57.38034 34920 ft 499 kts 82°
2026-04-23 16:03 41.11890 57.47144 34918 ft 499 kts 82°
2026-04-23 16:04 41.12905 57.56250 34916 ft 499 kts 82°
2026-04-23 16:04 41.13914 57.65360 34915 ft 499 kts 82°
2026-04-23 16:05 41.14744 57.72931 34922 ft 499 kts 83°
2026-04-23 16:05 41.15910 57.83586 34920 ft 499 kts 83°
2026-04-23 16:06 41.16900 57.92697 34920 ft 499 kts 83°
2026-04-23 16:06 41.17872 58.01757 34919 ft 499 kts 83°
2026-04-23 16:07 41.18847 58.10889 34925 ft 499 kts 83°
2026-04-23 16:07 41.19814 58.20012 34924 ft 499 kts 83°
2026-04-23 16:08 41.20773 58.29137 34928 ft 499 kts 83°
2026-04-23 16:08 41.21726 58.38259 34924 ft 498 kts 83°
2026-04-23 16:09 41.22668 58.47366 34925 ft 498 kts 83°
2026-04-23 16:09 41.23606 58.56484 34903 ft 498 kts 83°
2026-04-23 16:10 41.24532 58.65588 34924 ft 497 kts 83°
2026-04-23 16:10 41.25445 58.74618 34927 ft 496 kts 83°
2026-04-23 16:11 41.26358 58.83719 34930 ft 496 kts 83°
2026-04-23 16:11 41.27263 58.92824 34929 ft 496 kts 83°
2026-04-23 16:12 41.28161 59.01924 34931 ft 496 kts 83°
2026-04-23 16:12 41.29050 59.11024 34929 ft 497 kts 83°
2026-04-23 16:13 41.29928 59.20076 34933 ft 497 kts 83°
2026-04-23 16:13 41.31240 59.33736 34930 ft 497 kts 84°
2026-04-23 16:14 41.32094 59.42844 34929 ft 495 kts 84°
2026-04-23 16:14 41.32945 59.51943 34929 ft 495 kts 84°
2026-04-23 16:15 41.33794 59.61032 34929 ft 495 kts 84°
2026-04-23 16:15 41.34199 59.70150 34931 ft 493 kts 95°
2026-04-23 16:16 41.33773 59.79257 34934 ft 492 kts 96°
2026-04-23 16:16 41.33315 59.88349 34937 ft 492 kts 96°
2026-04-23 16:17 41.32875 59.97446 34939 ft 492 kts 95°
2026-04-23 16:17 41.32424 60.06535 34942 ft 492 kts 96°
2026-04-23 16:18 41.31985 60.15628 34939 ft 493 kts 95°
2026-04-23 16:18 41.31550 60.24717 34948 ft 492 kts 96°
2026-04-23 16:19 41.31100 60.33807 34953 ft 492 kts 96°
2026-04-23 16:19 41.30723 60.42905 34951 ft 493 kts 91°
2026-04-23 16:20 41.31127 60.51963 34967 ft 494 kts 87°
2026-04-23 16:20 41.31628 60.61081 34960 ft 494 kts 87°
2026-04-23 16:21 41.32110 60.70199 34961 ft 494 kts 87°
2026-04-23 16:21 41.32573 60.79343 34964 ft 494 kts 87°
2026-04-23 16:22 41.33039 60.88465 34966 ft 494 kts 87°
2026-04-23 16:22 41.33425 60.96051 34965 ft 495 kts 87°
2026-04-23 16:23 41.33881 61.05181 34964 ft 495 kts 87°
2026-04-23 16:23 41.34334 61.14317 34964 ft 495 kts 87°
2026-04-23 16:24 41.34770 61.23461 34967 ft 495 kts 88°
2026-04-23 16:24 41.35195 61.32593 34967 ft 494 kts 88°
2026-04-23 16:25 41.35619 61.41712 34970 ft 494 kts 88°
2026-04-23 16:25 41.36038 61.50780 34969 ft 494 kts 88°
2026-04-23 16:26 41.36448 61.59902 34973 ft 494 kts 88°
2026-04-23 16:26 41.36849 61.69024 34974 ft 494 kts 88°
2026-04-23 16:27 41.37246 61.78150 34968 ft 493 kts 88°
2026-04-23 16:27 41.37637 61.87262 34973 ft 493 kts 88°
2026-04-23 16:28 41.38015 61.96377 34970 ft 494 kts 88°
2026-04-23 16:28 41.38365 62.05532 34981 ft 495 kts 88°
2026-04-23 16:29 41.38736 62.14681 34981 ft 495 kts 88°
2026-04-23 16:29 41.39094 62.23774 34987 ft 495 kts 88°
2026-04-23 16:30 41.39443 62.32924 34985 ft 494 kts 89°
2026-04-23 16:30 41.39789 62.42069 34989 ft 494 kts 89°
2026-04-23 16:31 41.40120 62.51225 34988 ft 494 kts 89°
2026-04-23 16:31 41.40479 62.60364 34976 ft 494 kts 88°
2026-04-23 16:32 41.40848 62.69499 34988 ft 493 kts 89°
2026-04-23 16:32 41.41189 62.78626 34989 ft 493 kts 89°
2026-04-23 16:33 41.41528 62.87765 34992 ft 493 kts 89°
2026-04-23 16:33 41.41868 62.96827 34993 ft 493 kts 89°
2026-04-23 16:34 41.42193 63.05967 34993 ft 493 kts 89°
2026-04-23 16:34 41.42510 63.15099 34996 ft 493 kts 89°
2026-04-23 16:35 41.42824 63.24216 35001 ft 493 kts 89°
2026-04-23 16:35 41.43127 63.33341 34993 ft 493 kts 89°
2026-04-23 16:36 41.43417 63.42464 34997 ft 493 kts 89°
2026-04-23 16:36 41.43705 63.51590 34993 ft 493 kts 89°
2026-04-23 16:37 41.43989 63.60655 35000 ft 493 kts 90°
2026-04-23 16:37 41.44260 63.69780 35002 ft 493 kts 90°
2026-04-23 16:38 41.44516 63.78915 35004 ft 493 kts 90°
2026-04-23 16:38 41.44759 63.88045 35008 ft 492 kts 90°
2026-04-23 16:39 41.44999 63.97171 35014 ft 492 kts 90°
2026-04-23 16:39 41.45227 64.06297 35008 ft 492 kts 90°
2026-04-23 16:40 41.45452 64.15341 35009 ft 492 kts 90°
2026-04-23 16:40 41.45669 64.24471 35011 ft 492 kts 90°
2026-04-23 16:41 41.45882 64.33579 35013 ft 492 kts 90°
2026-04-23 16:41 41.46084 64.42696 35004 ft 491 kts 91°
2026-04-23 16:42 41.46280 64.51760 35012 ft 492 kts 91°
2026-04-23 16:42 41.46466 64.60868 35012 ft 492 kts 91°
2026-04-23 16:43 41.46651 64.69981 35012 ft 491 kts 91°
2026-04-23 16:43 41.46824 64.79087 35013 ft 491 kts 91°
2026-04-23 16:44 41.46986 64.88203 35009 ft 491 kts 91°
2026-04-23 16:44 41.47145 64.97319 35017 ft 491 kts 91°
2026-04-23 16:45 41.47299 65.06418 35011 ft 491 kts 92°
2026-04-23 16:45 41.47446 65.15525 35015 ft 491 kts 92°
2026-04-23 16:46 41.47581 65.24624 35010 ft 489 kts 92°
2026-04-23 16:46 41.47709 65.33578 35003 ft 483 kts 92°
2026-04-23 16:47 41.47827 65.42636 35024 ft 492 kts 92°
2026-04-23 16:47 41.47948 65.51757 35015 ft 492 kts 92°
2026-04-23 16:48 41.48061 65.60883 35018 ft 491 kts 92°
2026-04-23 16:48 41.48162 65.70003 35021 ft 491 kts 93°
2026-04-23 16:49 41.48249 65.79033 35016 ft 487 kts 93°
2026-04-23 16:49 41.48286 65.88016 35016 ft 484 kts 94°
2026-04-23 16:50 41.48302 65.97083 35025 ft 491 kts 94°
2026-04-23 16:50 41.48319 66.06143 35024 ft 485 kts 94°
2026-04-23 16:51 41.48329 66.15146 35028 ft 485 kts 94°
2026-04-23 16:51 41.48322 66.24148 35027 ft 485 kts 94°
2026-04-23 16:52 41.48320 66.33096 35027 ft 479 kts 94°
2026-04-23 16:52 41.48305 66.41985 35038 ft 484 kts 95°
2026-04-23 16:53 41.48288 66.50991 35042 ft 486 kts 94°
2026-04-23 16:53 41.48229 66.59993 35027 ft 484 kts 98°
2026-04-23 16:54 41.47159 66.68768 35041 ft 478 kts 107°
2026-04-23 16:54 41.45856 66.77432 34864 ft 473 kts 107°
2026-04-23 16:55 41.45218 66.81739 34600 ft 475 kts 107°
2026-04-23 16:55 41.44585 66.86057 34290 ft 473 kts 107°
2026-04-23 16:55 41.43962 66.90338 33805 ft 469 kts 107°
2026-04-23 16:55 41.43352 66.94541 33296 ft 466 kts 107°
2026-04-23 16:56 41.42734 66.98764 32792 ft 462 kts 107°
2026-04-23 16:56 41.42108 67.03004 32301 ft 459 kts 107°
2026-04-23 16:56 41.41494 67.07115 31805 ft 456 kts 107°
2026-04-23 16:56 41.40875 67.11248 31304 ft 454 kts 107°
2026-04-23 16:57 41.40262 67.15363 30822 ft 451 kts 107°
2026-04-23 16:57 41.39653 67.19451 30352 ft 449 kts 107°
2026-04-23 16:57 41.39040 67.23524 29809 ft 446 kts 107°
2026-04-23 16:57 41.38430 67.27564 29247 ft 444 kts 107°
2026-04-23 16:58 41.37826 67.31576 28748 ft 440 kts 107°
2026-04-23 16:58 41.37222 67.35561 28267 ft 437 kts 107°
2026-04-23 16:58 41.36617 67.39514 27794 ft 433 kts 107°
2026-04-23 16:58 41.36019 67.43430 27332 ft 430 kts 107°
2026-04-23 16:59 41.35431 67.47320 26842 ft 428 kts 107°
2026-04-23 16:59 41.34844 67.51188 26372 ft 425 kts 107°
2026-04-23 16:59 41.34258 67.55032 25895 ft 422 kts 107°
2026-04-23 16:59 41.33680 67.58806 25453 ft 420 kts 107°
2026-04-23 17:00 41.33099 67.62598 25004 ft 418 kts 107°
2026-04-23 17:00 41.32516 67.66380 24540 ft 416 kts 107°
2026-04-23 17:00 41.31935 67.70145 24078 ft 415 kts 107°
2026-04-23 17:00 41.31353 67.73899 23609 ft 414 kts 107°
2026-04-23 17:01 41.30768 67.77644 23078 ft 413 kts 107°
2026-04-23 17:01 41.30197 67.81374 22528 ft 411 kts 104°
2026-04-23 17:01 41.29878 67.85181 21782 ft 416 kts 98°
2026-04-23 17:01 41.29684 67.89012 21217 ft 413 kts 97°
2026-04-23 17:02 41.29557 67.91526 20864 ft 409 kts 97°
2026-04-23 17:02 41.29281 67.96535 19968 ft 402 kts 98°
2026-04-23 17:02 41.29056 68.00212 19337 ft 396 kts 98°
2026-04-23 17:02 41.28825 68.03853 18700 ft 391 kts 98°
2026-04-23 17:03 41.28603 68.07434 18021 ft 387 kts 98°
2026-04-23 17:03 41.28381 68.10977 17327 ft 382 kts 97°
2026-04-23 17:03 41.28163 68.14482 16647 ft 378 kts 97°
2026-04-23 17:03 41.27942 68.17947 15953 ft 375 kts 97°
2026-04-23 17:04 41.27725 68.21329 15326 ft 370 kts 97°
2026-04-23 17:04 41.27509 68.24719 14676 ft 366 kts 97°
2026-04-23 17:04 41.27290 68.28069 14012 ft 362 kts 97°
2026-04-23 17:04 41.27076 68.31387 13295 ft 358 kts 96°
2026-04-23 17:05 41.26860 68.34664 12597 ft 354 kts 96°
2026-04-23 17:05 41.26647 68.37893 11980 ft 348 kts 96°
2026-04-23 17:05 41.26440 68.41050 11538 ft 337 kts 96°
2026-04-23 17:05 41.26237 68.44097 11192 ft 325 kts 96°
2026-04-23 17:06 41.26045 68.47024 10883 ft 312 kts 96°
2026-04-23 17:06 41.25856 68.49873 10365 ft 308 kts 96°
2026-04-23 17:06 41.25662 68.52700 9791 ft 307 kts 96°
2026-04-23 17:06 41.25472 68.55507 9231 ft 303 kts 96°
2026-04-23 17:07 41.25289 68.58276 8691 ft 299 kts 96°
2026-04-23 17:07 41.25104 68.61021 8183 ft 301 kts 96°
2026-04-23 17:07 41.24912 68.63845 7507 ft 310 kts 95°
2026-04-23 17:07 41.24726 68.66660 7262 ft 302 kts 95°
2026-04-23 17:08 41.24542 68.69390 7097 ft 291 kts 95°
2026-04-23 17:08 41.24363 68.72026 6897 ft 284 kts 95°
2026-04-23 17:08 41.24183 68.74627 6567 ft 282 kts 95°
2026-04-23 17:08 41.24064 68.76341 6262 ft 283 kts 95°
2026-04-23 17:09 41.23814 68.79875 5470 ft 291 kts 95°
2026-04-23 17:09 41.23692 68.81654 5238 ft 289 kts 95°
2026-04-23 17:09 41.23452 68.85104 5005 ft 277 kts 95°
2026-04-23 17:09 41.23279 68.87598 4870 ft 266 kts 96°
2026-04-23 17:10 41.23112 68.89989 4747 ft 255 kts 96°
2026-04-23 17:10 41.23003 68.91548 4667 ft 247 kts 96°
2026-04-23 17:10 41.22852 68.93768 4550 ft 236 kts 95°
2026-04-23 17:10 41.22716 68.95886 4410 ft 224 kts 96°
2026-04-23 17:11 41.22645 68.97894 4269 ft 212 kts 89°
2026-04-23 17:11 41.22740 68.99793 4094 ft 201 kts 84°
2026-04-23 17:11 41.22931 69.01612 4032 ft 199 kts 83°
2026-04-23 17:11 41.23128 69.03431 4019 ft 199 kts 82°
2026-04-23 17:12 41.23327 69.05240 4001 ft 194 kts 82°
2026-04-23 17:12 41.23509 69.06892 3985 ft 170 kts 82°
2026-04-23 17:12 41.23666 69.08321 3946 ft 151 kts 82°
2026-04-23 17:12 41.23817 69.09692 3797 ft 150 kts 82°
2026-04-23 17:13 41.23967 69.11056 3615 ft 149 kts 82°
2026-04-23 17:13 41.24117 69.12419 3422 ft 149 kts 82°
2026-04-23 17:13 41.24267 69.13777 3219 ft 148 kts 82°
2026-04-23 17:13 41.24416 69.15130 3028 ft 148 kts 82°
2026-04-23 17:14 41.24564 69.16476 2834 ft 147 kts 82°
2026-04-23 17:14 41.24712 69.17822 2638 ft 147 kts 82°
2026-04-23 17:14 41.24859 69.19163 2443 ft 146 kts 82°
2026-04-23 17:14 41.25002 69.20494 2229 ft 145 kts 82°
2026-04-23 17:15 41.25151 69.21824 2037 ft 146 kts 82°
2026-04-23 17:15 41.25300 69.23152 1842 ft 145 kts 83°
2026-04-23 17:15 41.25441 69.24478 1641 ft 145 kts 82°
2026-04-23 17:15 41.25594 69.25795 1467 ft 144 kts 83°
2026-04-23 17:16 41.25732 69.27050 1386 ft 124 kts 82°
2026-04-23 17:16 41.25826 69.27938 1389 ft 68 kts 83°
2026-04-23 17:16 41.25863 69.28258 1388 ft 16 kts 81°
2026-04-23 17:16 41.25880 69.28416 1384 ft 19 kts 82°
2026-04-23 17:17 41.25899 69.28599 1384 ft 22 kts 82°
2026-04-23 17:17 41.25921 69.28803 1383 ft 9 kts 81°
2026-04-23 17:17 41.25931 69.28870 1384 ft 9 kts 66°
2026-04-23 17:17 41.25998 69.28897 1384 ft 14 kts 335°
2026-04-23 17:18 41.26118 69.28762 1386 ft 6 kts 318°
2026-04-23 17:18 41.26159 69.28712 1386 ft 10 kts 316°
2026-04-23 17:18 41.26186 69.28611 1387 ft 14 kts 272°
2026-04-23 17:19 41.26190 69.28469 1387 ft 17 kts 273°
2026-04-23 17:19 41.26183 69.28308 1385 ft 19 kts 261°
2026-04-23 17:19 41.26167 69.28159 1386 ft 15 kts 262°
2026-04-23 17:19 41.26149 69.28002 1385 ft 19 kts 261°
2026-04-23 17:20 41.26128 69.27817 1386 ft 22 kts 261°
2026-04-23 17:20 41.26100 69.27560 1387 ft 4 kts 262°
2026-04-23 17:21 41.26085 69.27422 1386 ft 11 kts 261°
2026-04-23 17:21 41.26072 69.27309 1387 ft 13 kts 260°
2026-04-23 17:21 41.26114 69.27183 1384 ft 3 kts 319°
2026-04-23 17:22 41.26127 69.27144 1385 ft 7 kts 271°
2026-04-23 17:22 41.26096 69.27024 1385 ft 2 kts 249°
2026-04-23 17:23 41.26063 69.26923 1383 ft 8 kts 246°
2026-04-23 17:23 41.26104 69.26881 1386 ft 12 kts 14°
2026-04-23 17:23 41.26170 69.26883 1386 ft 1 kts 357°
2026-04-23 17:24 41.26182 69.26883 1383 ft 0 kts 357°